This demonstration page uses our WeatherBlox Daily Observations layout. Learn more.

Left ArrowRight Arrow

34.02893, -84.19858

Hourly Observations for December 7, 2022

Temp ( °F °C ) Dew Point ( °F °C ) Humidity (%) Winds ( mph kmh ) Pressure ( in mb ) Visibility ( mi km ) Precip ( " mm )
12:03 am 00:03 Cloudy with Mist and Fog 52 11.1 52 11.1 100 100 Calm 30.26 1025 3 5 0.00 0.00
12:25 am 00:25 Cloudy with Light Rain 52 11.1 52 11.1 100 100 Calm 30.26 1025 4 6 0.01 0.25
12:39 am 00:39 Cloudy with Light Rain 52 11.1 52 11.1 100 100 Calm 30.25 1024 2 3 0.03 0.76
12:49 am 00:49 Cloudy with Light Rain 52 11 52 11 100 100 Calm 30.25 1024 3 5 0.04 1.02
12:53 am 00:53 Cloudy with Mist and Fog 52 11.1 52 11.1 100 100 Calm 30.26 1025 5 8 0.04 1.02
1:53 am 01:53 Cloudy with Mist and Fog 52 11.1 52 11.1 100 100 Calm 30.26 1025 4 6 0.00 0.00
2:04 am 02:04 Cloudy with Mist and Fog 52 11.1 52 11.1 100 100 Calm 30.25 1024 3 5 0.00 0.00
2:10 am 02:10 Cloudy with Mist and Fog 52 11.1 52 11.1 100 100 Calm 30.25 1024 2 3 0.00 0.00
2:26 am 02:26 Mostly Clear with Mist and Fog 52 11.1 52 11.1 100 100 Calm 30.26 1025 1 1 0.00 0.00
2:39 am 02:39 Mostly Clear with Fog 52 11.1 52 11.1 100 100 Calm 30.25 1024 1 1 0.00 0.00
2:53 am 02:53 Mostly Clear with Fog 52 11.1 52 11.1 100 100 Calm 30.24 1024 1 1 0.00 0.00
3:08 am 03:08 Mostly Clear with Fog 52 11.1 52 11.1 100 100 Calm 30.25 1024 0 0 0.00 0.00
3:48 am 03:48 Mostly Clear with Fog 54 12 54 12 100 100 Calm 30.24 1024 1 1 0.00 0.00
3:53 am 03:53 Mostly Clear with Fog 53 11.7 53 11.7 100 100 Calm 30.25 1024 1 1 0.00 0.00
4:32 am 04:32 Cloudy with Mist and Fog 53 11.7 53 11.7 100 100 Calm 30.24 1024 1 1 0.00 0.00
4:43 am 04:43 Cloudy with Mist and Fog 53 11.7 53 11.7 100 100 Calm 30.24 1024 1 2 0.00 0.00
4:53 am 04:53 Mostly Clear with Mist and Fog 53 11.7 53 11.7 100 100 Calm 30.24 1024 1 1 0.00 0.00
5:00 am 05:00 Mostly Clear with Fog 53 11.7 53 11.7 100 100 Calm 30.24 1024 1 1 0.00 0.00
5:30 am 05:30 Mostly Clear with Fog 53 11.7 53 11.7 100 100 Calm 30.24 1024 1 1 0.00 0.00
5:53 am 05:53 Mostly Clear with Fog 54 12.2 54 12.2 100 100 Calm 30.25 1024 0 0 0.00 0.00
6:53 am 06:53 Mostly Clear with Fog 54 12.2 54 12.2 100 100 Calm 30.26 1025 0 0 0.00 0.00
7:17 am 07:17 Mostly Clear with Fog 55 12.8 55 12.8 100 100 Calm 30.26 1025 1 1 0.00 0.00
7:38 am 07:38 Partly Cloudy with Fog 56 13.3 56 13.3 100 100 Calm 30.26 1025 0 0 0.00 0.00
7:53 am 07:53 Partly Cloudy with Fog 56 13.3 56 13.3 100 100 Calm 30.27 1025 0 0 0.00 0.00
8:19 am 08:19 Cloudy with Fog 57 13.9 56 13.3 96 96 Calm 30.27 1025 1 1 0.00 0.00
8:25 am 08:25 Cloudy with Fog 57 13.9 57 13.9 100 100 Calm 30.27 1025 0 0 0.00 0.00
8:53 am 08:53 Cloudy with Fog 58 14.4 58 14.4 100 100 Calm 30.28 1025 0 0 0.00 0.00
9:20 am 09:20 Cloudy with Fog 59 15 59 15 100 100 SSE 3 6 30.28 1025 1 1 0.00 0.00
9:56 am 09:56 Cloudy with Mist and Fog 60 15.6 60 15.6 100 100 SSW 3 6 30.28 1025 1 2 0.00 0.00
10:53 am 10:53 Cloudy with Mist and Fog 62 16.7 62 16.7 100 100 SSW 3 6 30.29 1026 1 2 0.00 0.00
11:00 am 11:00 Cloudy with Mist and Fog 63 17.2 62 16.7 97 97 SSW 5 7 30.29 1026 3 5 0.00 0.00
11:53 am 11:53 Cloudy with Mist and Fog 65 18.3 64 17.8 97 97 SSW 6 9 30.27 1025 5 8 0.00 0.00
12:00 pm 12:00 Cloudy with Mist and Fog 65 18.3 64 17.8 97 97 SSW 6 9 30.26 1025 5 8 0.00 0.00
12:53 pm 12:53 Cloudy 67 19.4 65 18.3 93 93 WSW 10 17 30.26 1025 7 11 0.00 0.00
1:53 pm 13:53 Cloudy 69 20.6 65 18.3 87 87 WSW 8 13 30.24 1024 10 16 0.00 0.00
2:53 pm 14:53 Cloudy 69 20.6 65 18.3 87 87 WSW 3 6 30.24 1024 10 16 0.00 0.00
3:00 pm 15:00 Cloudy 69 20.6 65 18.3 87 87 SW 3 6 30.22 1023 10 16 0.00 0.00
3:53 pm 15:53 Mostly Cloudy 70 21.1 66 18.9 87 87 SW 6 9 30.24 1024 10 16 0.00 0.00
4:45 pm 16:45 Mostly Cloudy 70 21.1 65 18.3 84 84 WSW 3 6 30.22 1023 10 16 0.00 0.00
4:53 pm 16:53 Mostly Cloudy 70 21.1 66 18.9 87 87 SSW 5 7 30.24 1024 10 16 0.00 0.00
5:42 pm 17:42 Cloudy with Rain 67 19.4 66 18.9 97 97 NNW 10 17 30.24 1024 3 5 0.03 0.76
5:53 pm 17:53 Cloudy with Light Rain 67 19.4 65 18.3 93 93 NW 6 9 30.25 1024 3 5 0.05 1.27
6:02 pm 18:02 Cloudy with Light Rain 67 19.4 66 18.9 97 97 NW 3 6 30.24 1024 6 10 0.01 0.13
6:18 pm 18:18 Mostly Cloudy 66 18.9 65 18.3 96 96 Calm 30.24 1024 8 13 0.01 0.13
6:25 pm 18:25 Mostly Cloudy with Mist and Fog 66 18.9 65 18.3 96 96 Calm 30.24 1024 6 10 0.01 0.13
6:53 pm 18:53 Mostly Cloudy 66 18.9 65 18.3 96 96 Calm 30.26 1025 8 13 0.01 0.13
7:00 pm 19:00 Cloudy 66 18.9 65 18.3 96 96 Calm 30.25 1024 8 13 0.00 0.00
7:53 pm 19:53 Cloudy 65 18.3 65 18.3 100 100 Calm 30.27 1025 7 11 0.00 0.00
8:53 pm 20:53 Cloudy 65 18.3 64 17.8 97 97 W 3 6 30.27 1025 10 16 0.00 0.00
9:53 pm 21:53 Mostly Cloudy 63 17.2 63 17.2 100 100 SW 5 7 30.28 1025 10 16 0.00 0.00
10:34 pm 22:34 Mostly Cloudy with Mist and Fog 63 17.2 62 16.7 97 97 Calm 30.26 1025 2 2 0.00 0.00
10:51 pm 22:51 Mostly Clear with Mist and Fog 63 17 63 17 100 100 Calm 30.27 1025 3 5 0.00 0.00
10:52 pm 22:52 Mostly Clear with Mist and Fog 63 17.2 62 16.7 97 97 Calm 30.26 1025 3 5 0.00 0.00
11:05 pm 23:05 Mostly Clear with Mist and Fog 62 16.7 62 16.7 100 100 Calm 30.27 1025 2 2 0.00 0.00
11:15 pm 23:15 Partly Cloudy with Fog 61 16.1 61 16.1 100 100 SSW 3 6 30.27 1025 1 1 0.00 0.00
11:23 pm 23:23 Mostly Cloudy with Mist and Fog 62 16.7 62 16.7 100 100 SW 3 6 30.27 1025 1 2 0.00 0.00
11:31 pm 23:31 Mostly Cloudy with Mist and Fog 62 16.7 62 16.7 100 100 W 3 6 30.27 1025 3 5 0.00 0.00
11:45 pm 23:45 Cloudy with Mist and Fog 63 17.2 62 16.7 97 97 WSW 3 6 30.25 1024 2 3 0.00 0.00
11:53 pm 23:53 Mostly Cloudy with Mist and Fog 62 16.7 62 16.7 100 100 WSW 3 6 30.25 1024 2 2 0.00 0.00
11:59 pm 23:59 Partly Cloudy with Mist and Fog 61 16.1 61 16.1 100 100 SSW 3 6 30.26 1025 1 1 0.00 0.00

Powered by AerisWeather